Probability
0 0 0 0 0 0 0 0 0 0 0 0 0 0 0 0 0 0 0 0 0 0 1 2 4 4 4 3 3 2 3 3 3 2 3 3 2 1 0 0 0 0 0 0
0 0 0 0 0 0 0 0 0 0 0 0 0 0 0 0 0 0 0 0 0 0 1 2 3 4 3 3 3 3 3 3 3 3 3 3 3 2 1 0 0 0 0 0
0 0 0 0 0 0 0 0 0 0 0 0 0 0 0 0 0 0 0 0 0 0 0 1 3 3 3 3 3 3 3 3 3 3 3 3 2 2 1 0 0 0 0 0
0 0 0 0 0 0 0 0 0 0 0 0 0 0 0 0 0 0 0 0 0 0 0 1 2 3 3 3 3 3 3 3 3 3 3 1 1 1 0 0 0 0 0 0
0 0 0 0 0 0 0 0 0 0 0 0 0 0 0 0 0 0 0 0 0 0 0 1 2 3 3 3 3 3 3 3 3 3 3 1 0 0 0 0 0 0 0 0
0 0 0 0 0 0 0 0 0 0 0 0 0 0 0 0 0 0 0 0 0 0 0 1 2 3 3 3 3 3 3 3 2 3 3 2 1 0 0 0 0 0 0 0
0 0 0 0 0 0 0 0 0 0 0 0 0 0 0 0 0 0 0 0 0 0 0 1 2 3 3 3 3 3 3 3 3 3 3 2 1 1 1 0 0 0 0 0
0 0 0 0 0 0 0 0 0 0 0 0 0 0 0 0 0 0 0 0 0 0 0 1 2 3 3 3 3 3 3 3 3 2 2 2 2 2 1 0 0 0 0 0
0 0 0 0 0 0 0 0 0 0 0 0 0 0 0 0 0 0 0 0 0 0 0 1 2 3 3 3 3 3 3 3 2 1 1 1 2 2 1 0 0 0 0 0
0 0 0 0 0 0 0 0 0 0 0 0 0 0 0 0 0 0 0 0 0 0 0 1 2 2 3 3 3 3 3 3 2 1 0 0 1 1 0 0 0 0 0 0
0 0 0 0 0 0 0 0 0 0 0 0 0 0 0 0 0 0 0 0 0 0 0 0 1 1 1 2 2 2 2 1 1 0 0 0 0 0 0 0 0 0 0 0
0 0 0 0 0 0 0 0 0 0 0 0 0 0 0 0 0 0 0 0 0 0 0 0 0 0 0 1 1 1 1 0 0 0 0 0 0 0 0 0 0 0 0 0
0 0 0 0 0 0 0 0 0 0 0 0 0 0 0 0 0 0 0 0 0 0 0 0 0 0 0 0 0 0 0 0 0 0 0 0 0 0 0 0 0 0 0 0
0 0 0 0 0 0 0 0 0 0 0 0 0 0 0 0 0 0 0 0 0 0 0 0 0 0 0 0 0 0 0 0 0 0 0 0 0 0 0 0 0 0 0 0
0 0 0 0 0 0 0 0 0 0 0 0 0 0 0 0 0 0 0 0 0 0 0 0 0 0 0 0 0 0 0 0 0 0 0 0 0 0 0 0 0 0 0 0
0 0 0 0 0 0 0 0 0 0 0 0 0 0 0 0 0 0 0 0 0 0 0 0 0 0 0 0 0 0 0 0 0 0 0 0 0 0 0 0 0 0 0 0
0 0 0 0 0 0 0 0 0 0 0 0 0 0 0 0 0 0 0 0 0 0 0 0 0 0 0 0 0 0 0 0 0 0 0 0 0 0 0 0 0 0 0 0
0 0 0 0 0 0 0 0 0 0 0 0 0 0 0 0 0 0 0 0 0 0 0 0 0 0 0 0 0 0 0 0 0 0 0 0 0 0 0 0 0 0 0 0
0 0 0 0 0 0 0 0 0 0 0 0 0 0 0 0 0 0 0 0 0 0 0 0 0 0 0 0 0 0 0 0 0 0 0 0 0 0 0 0 0 0 0 0
0 0 0 0 0 0 0 0 0 0 0 0 0 0 0 0 0 0 0 0 0 0 0 0 0 0 0 0 0 0 0 0 0 0 0 0 0 0 0 0 0 0 0 0
0 0 0 0 0 0 0 0 0 0 0 0 0 0 0 0 0 0 0 0 0 0 0 0 0 0 0 0 0 0 0 0 0 0 0 0 0 0 0 0 0 0 0 0
0 0 0 0 0 0 0 0 0 0 0 0 0 0 0 0 0 0 0 0 0 0 0 0 0 0 0 0 0 0 0 0 0 0 0 0 0 0 0 0 0 0 0 0
0 0 0 0 0 0 0 0 0 0 0 0 0 0 0 0 0 0 0 0 0 0 0 0 0 0 0 0 0 0 0 0 0 0 0 0 0 0 0 0 0 0 0 0
0 0 0 0 0 0 0 0 0 0 0 0 0 0 0 0 0 0 0 0 0 0 0 0 0 0 0 0 0 0 0 0 0 0 0 0 0 0 0 0 0 0 0 0
0 0 0 0 0 0 0 0 0 0 0 0 0 0 0 0 0 0 0 0 0 0 0 0 0 0 0 0 0 0 0 0 0 0 0 0 0 0 0 0 0 0 0 0
0 0 0 0 0 0 0 0 0 0 0 0 0 0 0 0 0 0 0 0 0 0 0 0 0 0 0 0 0 0 0 0 0 0 0 0 0 0 0 0 0 0 0 0
Wind_Speed
3 2 3 4 5 6 5 6 8 6 1 3 8 8 6 3 2 2 2 2 2 2 2 3 3 3 3 3 3 3 3 2 2 1 1 0 0 0 0 0 1 1 1 1
3 4 4 3 4 5 6 8 9 6 2 4 7 9 6 4 4 2 2 2 1 1 1 2 2 2 3 2 3 3 3 2 2 1 1 1 1 1 1 1 0 0 1 1
4 1 2 3 4 5 7 7 7 6 6 6 6 8 5 3 3 2 1 1 1 1 1 1 1 1 2 2 2 2 2 2 2 2 1 0 0 1 1 1 1 1 1 1
3 2 3 3 3 4 6 3 5 6 6 5 3 7 5 4 3 2 1 1 1 0 1 1 1 0 1 1 1 1 2 2 2 2 2 2 1 2 2 1 1 1 1 1
2 1 2 3 3 3 4 5 5 6 6 7 6 6 6 4 3 2 1 1 0 1 1 0 0 1 1 1 1 1 1 1 2 2 2 2 2 2 1 1 2 2 1 1
3 1 1 2 3 3 3 4 5 5 3 7 8 7 5 2 2 1 1 1 1 1 1 1 1 1 1 1 1 1 1 1 1 1 2 2 2 2 2 2 2 2 1 1
3 3 1 0 3 1 2 2 2 2 4 6 2 4 4 1 3 3 2 2 2 2 2 1 1 1 1 1 1 1 1 1 1 2 2 2 2 3 3 3 2 2 2 2
4 3 3 1 1 2 3 3 3 4 5 4 2 5 2 3 4 5 4 3 3 3 2 2 1 1 1 1 1 1 1 1 2 2 2 2 2 2 2 2 2 2 2 2
4 4 1 0 1 1 2 2 1 2 4 5 5 2 2 4 5 5 4 4 5 4 4 4 2 1 1 1 1 2 2 2 2 3 2 2 2 2 2 2 2 2 3 3
3 6 2 0 0 1 2 1 0 2 3 5 5 3 1 1 2 3 4 4 4 4 5 4 3 2 1 1 1 2 2 2 2 2 2 2 2 2 2 2 3 3 3 3
3 3 3 2 4 3 2 1 2 3 3 3 4 2 2 3 2 2 3 4 4 4 4 4 4 3 2 1 1 1 2 2 3 3 3 3 2 2 2 2 3 3 3 3
2 2 5 4 0 1 2 2 2 2 4 3 4 4 2 3 3 3 4 4 4 4 4 4 4 3 2 2 2 2 2 3 3 3 3 3 3 2 2 3 3 3 3 4
1 1 4 3 0 1 1 1 1 1 2 4 4 5 2 4 5 4 4 4 4 4 4 4 4 4 3 2 2 2 2 3 3 3 3 3 3 3 3 3 3 3 3 4
1 3 5 6 4 1 3 3 2 3 4 5 7 6 5 5 6 5 5 4 3 4 5 5 5 4 4 3 3 3 3 3 4 3 3 4 4 4 4 3 3 3 3 4
1 4 5 8 8 5 5 5 4 6 6 6 6 5 6 5 5 5 5 4 4 5 6 6 6 6 5 4 4 3 4 3 4 4 4 4 4 4 3 3 4 3 3 4
1 3 4 7 6 4 6 6 5 6 6 7 7 8 6 5 4 5 5 5 5 6 6 6 7 7 7 6 5 5 4 4 4 4 4 4 4 4 3 4 4 4 3 4
2 2 3 5 2 3 5 4 3 3 2 3 5 6 6 6 7 6 6 6 6 7 7 7 7 7 7 6 6 5 5 5 4 4 4 4 4 4 3 4 3 3 4 3
2 2 3 4 4 5 3 2 1 1 2 2 3 5 6 6 6 4 4 5 6 7 8 7 7 7 7 6 6 5 4 4 4 4 4 4 4 4 3 3 4 4 3 3
1 2 3 3 4 6 1 2 2 2 3 2 3 6 7 7 6 3 5 6 6 7 7 7 6 6 6 6 6 5 5 4 4 4 4 4 4 4 4 4 3 3 3 4
1 1 2 3 3 5 2 4 5 1 3 4 5 6 7 7 5 4 7 8 8 8 7 7 6 6 6 6 5 5 5 5 5 5 5 4 4 4 4 4 3 3 3 3
1 1 3 4 4 4 3 5 3 1 4 6 6 6 6 4 4 6 8 8 8 8 8 7 6 6 6 6 5 5 5 5 5 5 5 4 4 3 3 3 2 2 3 3
2 2 2 2 3 4 4 3 2 3 5 6 6 6 5 5 6 7 7 8 8 8 8 7 6 6 6 6 5 5 6 6 5 5 4 4 4 3 3 2 2 2 2 3
1 2 2 2 3 1 1 0 2 3 5 5 6 6 5 5 6 7 7 7 7 8 8 7 6 6 7 6 6 6 7 6 5 5 4 4 4 3 3 2 2 2 2 2
1 1 1 2 3 2 1 2 4 5 5 5 5 5 5 5 6 6 6 7 7 7 7 7 7 7 7 7 7 6 6 6 5 5 5 4 3 3 3 2 2 2 2 2
2 1 2 3 4 5 2 4 5 6 6 6 6 5 5 4 5 6 6 7 7 7 7 7 6 6 7 7 7 7 7 6 5 5 5 4 4 4 3 3 2 2 2 2
0 1 2 3 2 3 5 5 6 6 6 5 5 5 5 4 5 6 6 6 6 7 7 7 7 7 7 7 7 7 7 6 5 5 5 4 3 3 3 3 3 5 4 6
Wind_Direction
191 208 227 236 233 264 288 288 283 281 281 244 247 254 249 219 209 215 209 206 210 205 143 123 117 115 120 131 136 139 135 132 128 132 135 158 191 185 188 250 241 260 286 297
214 226 250 278 283 276 273 277 278 285 293 275 268 266 257 209 214 207 195 199 220 176 108 114 122 130 141 150 150 148 150 152 149 158 186 203 219 242 247 264 285 312 324 304
232 258 294 271 281 282 263 259 277 293 307 270 272 272 227 196 190 177 170 182 222 187 158 125 113 144 147 159 161 170 166 168 167 157 153 160 31 351 321 297 273 287 300 292
267 267 286 278 274 279 272 306 294 294 294 274 237 277 243 177 171 184 222 199 227 350 122 127 131 170 176 174 166 172 177 178 180 175 177 184 210 228 259 258 267 277 269 264
266 278 281 268 273 261 275 312 286 273 267 275 246 249 265 165 196 203 204 174 142 18 33 90 142 203 197 173 169 181 193 197 200 201 196 196 224 244 245 245 257 269 264 247
256 302 314 306 299 263 291 295 271 249 244 254 229 219 265 202 192 144 66 27 22 8 2 348 34 42 7 52 109 188 210 230 217 223 215 212 226 235 229 235 238 248 257 250
245 212 197 299 303 269 286 311 302 265 228 245 203 211 242 121 90 108 92 30 14 21 10 360 20 22 3 7 2 308 251 269 250 240 232 234 231 231 226 228 232 238 247 255
298 262 165 149 282 264 254 229 225 253 261 289 241 219 202 95 81 67 60 38 20 19 11 1 8 26 356 336 333 322 290 288 280 263 253 249 249 242 234 234 239 246 250 252
309 292 36 45 335 302 274 239 283 281 280 270 249 209 131 71 54 44 38 30 17 11 7 0 357 13 355 314 304 308 307 301 287 281 278 263 257 260 252 247 245 251 253 254
308 292 268 183 243 260 283 309 176 233 273 274 264 234 262 43 25 16 19 13 4 3 359 352 350 347 343 306 304 320 318 309 297 295 290 290 278 263 259 258 255 251 249 251
306 276 273 219 211 214 198 210 236 257 254 264 280 279 57 79 79 35 17 13 4 358 350 343 343 340 338 336 324 320 319 320 317 310 307 298 289 279 261 256 257 257 259 255
319 286 272 259 225 60 163 190 177 215 268 258 272 263 74 74 64 49 21 7 2 2 357 348 343 338 339 330 318 312 317 317 313 313 308 299 294 287 277 273 270 270 265 258
329 278 298 284 273 31 326 268 228 232 276 251 247 257 47 32 29 33 13 353 2 2 358 355 348 339 337 333 329 320 316 312 311 310 301 295 294 291 284 280 279 274 273 273
327 235 222 248 281 282 265 267 241 202 228 252 245 271 315 347 351 353 353 351 355 358 356 353 346 339 338 335 328 319 313 307 306 302 296 290 287 283 283 286 284 276 274 275
321 259 254 267 277 273 260 255 224 210 223 240 268 280 301 329 331 335 335 342 350 352 350 347 343 337 333 330 323 317 314 312 305 299 294 288 293 292 295 293 287 281 274 273
295 270 287 275 255 257 273 273 248 236 240 253 273 283 305 323 332 335 335 338 340 337 339 340 338 334 331 328 319 318 316 311 304 294 292 295 296 297 296 295 291 285 278 275
261 266 273 268 278 303 277 269 227 223 234 236 257 277 328 335 337 334 333 336 333 331 331 334 331 326 321 319 317 311 308 309 303 295 295 297 295 294 292 296 295 290 284 277
226 256 265 283 311 261 239 60 95 200 267 264 280 311 326 317 314 321 341 338 336 336 332 325 323 322 319 318 319 311 308 307 308 309 303 302 300 297 297 293 289 290 289 283
219 224 264 270 276 268 238 19 8 288 292 355 329 321 325 326 317 331 10 1 342 331 325 320 318 317 319 321 322 322 319 316 318 317 309 302 296 293 293 290 293 296 293 289
344 209 247 267 272 272 306 327 325 290 266 5 351 327 324 334 324 319 348 345 337 333 330 326 325 326 328 326 328 326 322 326 324 319 311 304 296 289 286 285 289 295 291 289
332 263 243 255 256 265 345 325 349 7 291 333 332 324 321 318 292 306 325 329 331 329 329 330 331 334 331 331 333 329 327 324 320 318 318 315 307 296 285 282 287 294 295 299
203 241 245 255 248 273 359 25 35 284 322 329 326 326 322 314 313 320 326 330 335 335 337 340 340 339 339 342 341 336 331 325 325 325 325 324 323 319 314 294 294 299 297 299
176 217 254 216 226 336 92 93 337 342 322 320 321 321 320 316 318 324 327 332 338 340 340 343 345 345 346 347 347 340 330 332 336 344 341 338 339 336 338 334 322 321 316 315
323 347 286 279 289 314 358 5 354 343 329 325 326 325 322 314 319 327 331 336 340 341 342 346 351 351 344 345 345 336 332 337 348 349 346 345 348 348 351 348 341 335 329 332
301 327 294 273 304 326 343 357 342 337 340 341 339 337 333 333 333 334 336 338 341 342 343 347 349 347 344 346 347 343 345 348 352 350 346 346 347 343 346 346 344 340 337 346
321 193 229 261 308 300 301 327 338 336 336 339 340 341 346 347 338 339 338 340 342 342 344 347 349 349 345 347 347 346 347 349 351 346 345 345 349 351 352 352 353 352 352 343